Info for pilots

Image

Airfield Info:

EBUL
N51 08.7 - E003 28.6
ELEV 95' / 29m
RWY 07 / 25
799m * 45m (CIV) - 2980m (MIL)
Ursel Radio 135.130
Tel Aero Club Brugge : +32(0)9 374 25 75
Tel Vliegclub Ursel : +32(0)9 374 12 90

Operational Hours
FRI: 14h00LT - SS+30 MIN
SAT, SUN and HOL: TKOF and LDG: 10h00LT - SS+30 MIN
After 20h00LT to SS+30 MIN: only LDG allowed (PN)

Local Traffic Regulations
The use of the AD is subject to PPR from the OPR;
AD given in concession to the CIV club outside MIL ACT;
Solo training flights can only be performed after two reconnaissance flights with instructor. The solo training flight must be performed within six weeks after the first reconnaissance flight;
Jet aircraft operations not allowed.

Obstacles:
trees between 10M AGL and 22M AGL, caution when crosswind:
North of the RWY, 75M from CL, along the whole length of the RWY;
South of the RWY, 75M from CL, and at THR RWY 25 from THR RWY 07 to 140M east of THR RWY 07



Image

Image

Watch out!

Flight Procedures
RWY 07 and 25 left hand circuit, 1.200 FT QNH

Image

Taxi procedures:
RWY 07 (TKOF):
taxi on the north side of the RWY to the HLDG position of RWY 07

RWY 07 (LDG):
after landing roll out to the second intersection (THR RWY 25), turn left, turn left again, taxi via the TWY to the first intersection, turn left, cross the RWY (check for landing ACFT), taxi on the south side of the RWY to the AD reporting office

RWY 25 (TKOF):
taxi on the north side of the first intersection, turn left, next turn right, taxi via the TWY to the second intersection, turn right, taxi to the HLDG of RWY 25

RWY 25 (LDG):
after landing roll out to the end of the RWY, taxi on the south side of the RWY to the AD reporting office.





Image

Taxi & Circuit?

Image
Image
Image
Image

Current Metars - Auto refresh

EBOS - Oostende
2021/06/21 17:20 EBOS 211720Z 04015G26KT 9999 -RADZ SCT011 BKN014 14/13 Q1012 TEMPO BKN016


EBAW - Antwerpen
2021/06/21 17:20 EBAW 211720Z 03009KT 9999 BKN013 BKN020 16/13 Q1012 NOSIG


EBBR - Brussel
2021/06/21 17:20 EBBR 211720Z 04009KT 9999 BKN014 17/14 Q1011 NOSIG

Source : NOAA.GOV

Current TAFs - Auto refresh

EBOS - Oostende
2021/06/21 18:27 TAF EBOS 211705Z 2118/2224 04015KT 9999 SCT012 BKN025 PROB40 TEMPO 2120/2208 BKN012 PROB30 TEMPO 2204/2212 4000 SHRA

EBAW - Antwerpen
2021/06/21 21:13 TAF EBAW 202000Z 2021/2106 02008KT 9999 SCT045 BECMG 2102/2104 RA BKN014 PROB40 TEMPO 2102/2106 4000 RA SHRA BKN010 SCT035CB PROB30 TEMPO 2105/2106 2500 BR BKN005

EBBR - Brussel
2021/06/21 18:27 TAF TAF EBBR 211705Z 2118/2224 03009KT 9999 SCT015 BKN025 PROB30 TEMPO 2122/2207 BKN009 PROB30 TEMPO 2207/2212 4000 SHRA PROB30 TEMPO 2220/2224 4000 SHRA

Source : NOAA.GOV
Image

Webcam

Direction runway 07 :